Location: Alphen
(52.1351°N, 4.6549°E)
Time: 01:58:07
(UTC+00:00)

Cosmos 1633 - Pass Details

Date: 27 January 2021
Orbit: 460 x 480 km, 82.5° (Epoch: 27 February)

Event Time Altitude Azimuth Distance (km) Brightness Sun altitude
Rises 06:48:27 0° 355° (N) 2,524 5.9 -6.4°
Reaches altitude 10° 06:50:40 10° 4° (N) 1,638 5.1 -6.1°
Maximum altitude 06:54:00 36° 73° (ENE) 762 4.1 -5.7°
Drops below altitude 10° 06:57:17 10° 141° (SE) 1,615 6.4 -5.2°
Sets 06:59:27 0° 151° (SSE) 2,483 7.1 -4.9°
